Location: Unspecified
(41.1637°N, 24.2901°E)
Time: 17:18:05
(UTC+01:00)

ISS - Pass Details

Date: 15 January 2025
Orbit: 415 x 418 km, 51.6° (Epoch: 13 January)

Event Time Altitude Azimuth Distance (km) Brightness Sun altitude
Rises 18:00:12 0° 251° (WSW) 2,347 1.7 -18.7°
Reaches altitude 10° 18:02:22 10° 259° (W) 1,486 0.3 -19.1°
Maximum altitude 18:05:33 40° 331° (NNW) 624 -2.8 -19.7°
Enters shadow 18:05:59 38° 353° (N) 651 -2.9 -19.8°
